AUA453 LOWW-EGLL

Flight info

Callsign AUA453
Flight time 1h 54m
Altitude 36000
Route BUWUT DCT DITIS DCT IPDUL DCT OKG DCT VELIS DCT SWALM DCT TIVUN DCT BREDA DCT ABNED L980 LOGAN
Aircraft MD82/M-SDFGIJ1RWY/S

Departure

Time 2026-04-26 07:47
Airport Vienna International Airport (LOWW)

Arrival

Time 2026-04-26 09:42
Airport London Heathrow Airport (EGLL)
Time Latitude Longitude Altitude Speed Heading
2026-04-26 07:11 48.11780 16.56192 588 ft 0 kts 343°
2026-04-26 07:28 48.11778 16.56192 588 ft 1 kts 343°
2026-04-26 07:28 48.11765 16.56200 588 ft 2 kts 339°
2026-04-26 07:28 48.11755 16.56205 588 ft 2 kts 344°
2026-04-26 07:29 48.11740 16.56211 589 ft 2 kts 344°
2026-04-26 07:29 48.11726 16.56218 589 ft 2 kts 343°
2026-04-26 07:29 48.11711 16.56221 589 ft 2 kts
2026-04-26 07:29 48.11697 16.56215 589 ft 2 kts 25°
2026-04-26 07:30 48.11685 16.56204 588 ft 2 kts 45°
2026-04-26 07:30 48.11676 16.56186 588 ft 2 kts 65°
2026-04-26 07:30 48.11671 16.56165 588 ft 2 kts 84°
2026-04-26 07:30 48.11672 16.56142 587 ft 2 kts 104°
2026-04-26 07:31 48.11675 16.56130 587 ft 1 kts 116°
2026-04-26 07:31 48.11678 16.56121 587 ft 0 kts 117°
2026-04-26 07:39 48.11676 16.56126 587 ft 1 kts 117°
2026-04-26 07:39 48.11669 16.56146 587 ft 2 kts 117°
2026-04-26 07:39 48.11658 16.56179 588 ft 4 kts 116°
2026-04-26 07:40 48.11643 16.56224 589 ft 5 kts 116°
2026-04-26 07:40 48.11625 16.56279 590 ft 6 kts 116°
2026-04-26 07:40 48.11604 16.56344 591 ft 7 kts 116°
2026-04-26 07:40 48.11583 16.56407 594 ft 6 kts 116°
2026-04-26 07:41 48.11565 16.56461 596 ft 5 kts 116°
2026-04-26 07:41 48.11550 16.56507 598 ft 5 kts 115°
2026-04-26 07:41 48.11530 16.56574 599 ft 9 kts 116°
2026-04-26 07:41 48.11494 16.56681 601 ft 13 kts 117°
2026-04-26 07:42 48.11445 16.56832 603 ft 18 kts 115°
2026-04-26 07:42 48.11379 16.57031 604 ft 23 kts 134°
2026-04-26 07:42 48.11243 16.57160 602 ft 25 kts 109°
2026-04-26 07:42 48.11171 16.57419 599 ft 26 kts 116°
2026-04-26 07:43 48.11087 16.57645 596 ft 0 kts 115°
2026-04-26 07:43 48.11087 16.57647 596 ft 0 kts 124°
2026-04-26 07:43 48.11080 16.57643 596 ft 1 kts 233°
2026-04-26 07:43 48.11064 16.57624 597 ft 6 kts 182°
2026-04-26 07:44 48.10999 16.57618 598 ft 9 kts 200°
2026-04-26 07:44 48.10934 16.57572 599 ft 10 kts 208°
2026-04-26 07:44 48.10928 16.57496 599 ft 6 kts 293°
2026-04-26 07:44 48.10930 16.57490 599 ft 0 kts 295°
2026-04-26 07:45 48.10934 16.57477 599 ft 5 kts 295°
2026-04-26 07:45 48.10981 16.57330 601 ft 18 kts 296°
2026-04-26 07:45 48.10984 16.57319 601 ft 0 kts 296°
2026-04-26 07:46 48.10990 16.57302 602 ft 16 kts 296°
2026-04-26 07:46 48.11157 16.56793 601 ft 91 kts 297°
2026-04-26 07:47 48.11544 16.55685 651 ft 142 kts 304°
2026-04-26 07:47 48.12093 16.54327 1085 ft 161 kts 308°
2026-04-26 07:47 48.12478 16.52770 1854 ft 175 kts 274°
2026-04-26 07:47 48.12181 16.50975 2618 ft 183 kts 265°
2026-04-26 07:48 48.11850 16.49082 3138 ft 204 kts 263°
2026-04-26 07:48 48.11577 16.46952 3806 ft 211 kts 283°
2026-04-26 07:48 48.11828 16.44782 4534 ft 222 kts 285°
2026-04-26 07:48 48.12078 16.42461 5336 ft 233 kts 285°
2026-04-26 07:49 48.12336 16.40051 6142 ft 243 kts 284°
2026-04-26 07:49 48.12589 16.37641 7345 ft 235 kts 285°
2026-04-26 07:49 48.12849 16.35189 8072 ft 246 kts 284°
2026-04-26 07:50 48.13377 16.30155 9822 ft 253 kts 284°
2026-04-26 07:50 48.13645 16.27571 10732 ft 254 kts 285°
2026-04-26 07:50 48.13929 16.24876 11164 ft 273 kts 284°
2026-04-26 07:50 48.14308 16.22014 11582 ft 286 kts 296°
2026-04-26 07:51 48.15509 16.19662 11940 ft 298 kts 324°
2026-04-26 07:51 48.17418 16.18284 12637 ft 305 kts 334°
2026-04-26 07:51 48.19262 16.16981 13677 ft 299 kts 333°
2026-04-26 07:51 48.21206 16.15570 13926 ft 319 kts 333°
2026-04-26 07:52 48.23167 16.14133 15026 ft 312 kts 333°
2026-04-26 07:52 48.25119 16.12692 15431 ft 325 kts 333°
2026-04-26 07:52 48.27154 16.11184 16336 ft 322 kts 333°
2026-04-26 07:52 48.29129 16.09720 17040 ft 324 kts 333°
2026-04-26 07:53 48.31174 16.08201 17532 ft 331 kts 333°
2026-04-26 07:53 48.33196 16.06697 18398 ft 328 kts 333°
2026-04-26 07:53 48.35287 16.05142 18646 ft 342 kts 333°
2026-04-26 07:53 48.37356 16.03600 19694 ft 332 kts 333°
2026-04-26 07:54 48.39477 16.02019 19883 ft 347 kts 333°
2026-04-26 07:54 48.41621 16.00419 20593 ft 346 kts 333°
2026-04-26 07:54 48.43776 15.98810 21006 ft 354 kts 333°
2026-04-26 07:54 48.45998 15.97150 21647 ft 354 kts 333°
2026-04-26 07:55 48.48171 15.95525 22349 ft 353 kts 333°
2026-04-26 07:55 48.50415 15.93844 22589 ft 363 kts 333°
2026-04-26 07:55 48.51864 15.92758 23133 ft 360 kts 333°
2026-04-26 07:55 48.53923 15.91212 23401 ft 368 kts 333°
2026-04-26 07:56 48.56215 15.89425 24023 ft 366 kts 327°
2026-04-26 07:56 48.58075 15.86804 24305 ft 377 kts 307°
2026-04-26 07:56 48.59486 15.83535 24894 ft 375 kts 306°
2026-04-26 07:56 48.60951 15.80221 25200 ft 383 kts 306°
2026-04-26 07:57 48.62430 15.76899 25889 ft 379 kts 306°
2026-04-26 07:57 48.63911 15.73588 26229 ft 385 kts 306°
2026-04-26 07:57 48.65407 15.70247 26488 ft 392 kts 306°
2026-04-26 07:57 48.66945 15.66816 27119 ft 390 kts 306°
2026-04-26 07:58 48.68459 15.63435 27332 ft 398 kts 306°
2026-04-26 07:58 48.70008 15.59971 27991 ft 395 kts 305°
2026-04-26 07:58 48.71379 15.56325 28153 ft 404 kts 301°
2026-04-26 07:58 48.72734 15.52625 28634 ft 404 kts 301°
2026-04-26 07:59 48.74088 15.48924 29236 ft 402 kts 301°
2026-04-26 07:59 48.75461 15.45167 29551 ft 405 kts 301°
2026-04-26 07:59 48.76808 15.41479 30191 ft 400 kts 301°
2026-04-26 07:59 48.78179 15.37722 30404 ft 407 kts 301°
2026-04-26 08:00 48.79539 15.33991 30959 ft 402 kts 301°
2026-04-26 08:00 48.80923 15.30397 31479 ft 399 kts 306°
2026-04-26 08:00 48.82568 15.26959 31721 ft 402 kts 307°
2026-04-26 08:00 48.84187 15.23547 32249 ft 398 kts 307°
2026-04-26 08:01 48.85794 15.20149 32619 ft 399 kts 307°
2026-04-26 08:01 48.87392 15.16767 32914 ft 399 kts 307°
2026-04-26 08:01 48.88997 15.13364 33453 ft 395 kts 306°
2026-04-26 08:01 48.90646 15.10043 33561 ft 399 kts 308°
2026-04-26 08:02 48.92097 15.06450 33952 ft 396 kts 302°
2026-04-26 08:02 48.93508 15.02891 34205 ft 398 kts 302°
2026-04-26 08:02 48.96439 14.95626 34214 ft 410 kts 302°
2026-04-26 08:03 48.99466 14.88199 34241 ft 418 kts 303°
2026-04-26 08:03 49.02548 14.80649 34209 ft 423 kts 303°
2026-04-26 08:04 49.05640 14.73064 34222 ft 425 kts 303°
2026-04-26 08:04 49.08746 14.65428 34213 ft 426 kts 303°
2026-04-26 08:05 49.11847 14.57783 34242 ft 426 kts 302°
2026-04-26 08:05 49.14968 14.50067 34225 ft 427 kts 302°
2026-04-26 08:06 49.18061 14.42399 34238 ft 427 kts 302°
2026-04-26 08:06 49.21175 14.34657 34234 ft 427 kts 302°
2026-04-26 08:07 49.24262 14.26957 34237 ft 428 kts 302°
2026-04-26 08:07 49.27348 14.19237 34225 ft 428 kts 302°
2026-04-26 08:08 49.30459 14.11435 34224 ft 429 kts 302°
2026-04-26 08:08 49.33539 14.03683 34229 ft 429 kts 302°
2026-04-26 08:09 49.36619 13.95913 34227 ft 429 kts 302°
2026-04-26 08:09 49.39697 13.88121 34217 ft 429 kts 302°
2026-04-26 08:10 49.42753 13.80280 34223 ft 429 kts 300°
2026-04-26 08:10 49.46247 13.72923 34213 ft 429 kts 307°
2026-04-26 08:11 49.49754 13.65541 34219 ft 429 kts 306°
2026-04-26 08:11 49.53247 13.58063 34224 ft 430 kts 306°
2026-04-26 08:12 49.56692 13.50636 34231 ft 430 kts 306°
2026-04-26 08:12 49.60166 13.43113 34242 ft 431 kts 306°
2026-04-26 08:13 49.63606 13.35640 34245 ft 431 kts 306°
2026-04-26 08:13 49.67070 13.28092 34249 ft 432 kts 305°
2026-04-26 08:14 49.70535 13.20521 34253 ft 432 kts 305°
2026-04-26 08:14 49.73963 13.13008 34243 ft 432 kts 304°
2026-04-26 08:15 49.77422 13.05407 34244 ft 433 kts 304°
2026-04-26 08:15 49.80877 12.97792 34249 ft 434 kts 304°
2026-04-26 08:16 49.84335 12.90148 34244 ft 434 kts 304°
2026-04-26 08:16 49.87767 12.82541 34233 ft 435 kts 304°
2026-04-26 08:17 49.91221 12.74862 34226 ft 435 kts 304°
2026-04-26 08:17 49.94675 12.67163 34224 ft 435 kts 304°
2026-04-26 08:18 49.98113 12.59474 34220 ft 435 kts 304°
2026-04-26 08:18 50.01556 12.51753 34224 ft 436 kts 304°
2026-04-26 08:19 50.04985 12.44042 34223 ft 436 kts 304°
2026-04-26 08:19 50.07644 12.35723 34305 ft 431 kts 288°
2026-04-26 08:20 50.08591 12.31264 34197 ft 435 kts 288°
2026-04-26 08:20 50.09538 12.26851 34243 ft 435 kts 289°
2026-04-26 08:20 50.11467 12.17922 34231 ft 437 kts 289°
2026-04-26 08:21 50.13400 12.08973 34222 ft 438 kts 289°
2026-04-26 08:21 50.15335 11.99992 34228 ft 439 kts 288°
2026-04-26 08:22 50.17260 11.91016 34234 ft 440 kts 288°
2026-04-26 08:22 50.19185 11.82009 34227 ft 440 kts 288°
2026-04-26 08:23 50.21100 11.73000 34233 ft 439 kts 288°
2026-04-26 08:23 50.23016 11.63955 34229 ft 440 kts 288°
2026-04-26 08:24 50.24912 11.54962 34237 ft 440 kts 288°
2026-04-26 08:24 50.26812 11.45903 34237 ft 440 kts 288°
2026-04-26 08:25 50.28711 11.36817 34245 ft 441 kts 288°
2026-04-26 08:25 50.30597 11.27748 34253 ft 441 kts 287°
2026-04-26 08:26 50.32487 11.18617 34248 ft 441 kts 287°
2026-04-26 08:26 50.34362 11.09522 34251 ft 441 kts 287°
2026-04-26 08:27 50.36224 11.00444 34252 ft 441 kts 287°
2026-04-26 08:27 50.38088 10.91317 34255 ft 442 kts 287°
2026-04-26 08:28 50.39955 10.82130 34260 ft 443 kts 287°
2026-04-26 08:28 50.41799 10.73013 34260 ft 443 kts 287°
2026-04-26 08:29 50.43650 10.63825 34260 ft 443 kts 287°
2026-04-26 08:29 50.45495 10.54617 34257 ft 443 kts 287°
2026-04-26 08:30 50.47358 10.45441 34252 ft 443 kts 288°
2026-04-26 08:30 50.49182 10.36296 34251 ft 444 kts 287°
2026-04-26 08:31 50.51023 10.27069 34254 ft 444 kts 286°
2026-04-26 08:31 50.52868 10.17803 34252 ft 445 kts 286°
2026-04-26 08:32 50.54705 10.08541 34248 ft 446 kts 286°
2026-04-26 08:32 50.56537 9.99263 34245 ft 447 kts 286°
2026-04-26 08:33 50.58357 9.90000 34242 ft 446 kts 286°
2026-04-26 08:33 50.60181 9.80676 34255 ft 446 kts 286°
2026-04-26 08:34 50.61985 9.71405 34262 ft 447 kts 286°
2026-04-26 08:34 50.63800 9.62031 34265 ft 448 kts 286°
2026-04-26 08:35 50.65591 9.52744 34267 ft 448 kts 286°
2026-04-26 08:35 50.67390 9.43357 34264 ft 448 kts 286°
2026-04-26 08:36 50.69182 9.33972 34269 ft 449 kts 285°
2026-04-26 08:36 50.70969 9.24558 34265 ft 449 kts 285°
2026-04-26 08:37 50.72733 9.15167 34272 ft 449 kts 283°
2026-04-26 08:37 50.74342 9.05723 34273 ft 449 kts 284°
2026-04-26 08:38 50.75985 8.96210 34269 ft 449 kts 284°
2026-04-26 08:38 50.77619 8.86748 34270 ft 449 kts 284°
2026-04-26 08:39 50.79250 8.77268 34274 ft 450 kts 284°
2026-04-26 08:39 50.80880 8.67743 34272 ft 450 kts 284°
2026-04-26 08:40 50.82502 8.58214 34265 ft 451 kts 284°
2026-04-26 08:40 50.84114 8.48696 34263 ft 451 kts 284°
2026-04-26 08:41 50.85732 8.39090 34264 ft 452 kts 284°
2026-04-26 08:41 50.87324 8.29583 34272 ft 452 kts 283°
2026-04-26 08:42 50.88929 8.19945 34268 ft 452 kts 284°
2026-04-26 08:42 50.90508 8.10410 34264 ft 452 kts 284°
2026-04-26 08:43 50.92090 8.00804 34258 ft 453 kts 284°
2026-04-26 08:43 50.93852 7.91238 34270 ft 451 kts 291°
2026-04-26 08:44 50.96008 7.81927 34268 ft 453 kts 289°
2026-04-26 08:44 50.98082 7.72541 34262 ft 453 kts 288°
2026-04-26 08:45 51.00124 7.63144 34264 ft 453 kts 288°
2026-04-26 08:45 51.02159 7.53697 34266 ft 452 kts 288°
2026-04-26 08:46 51.04170 7.44313 34279 ft 452 kts 288°
2026-04-26 08:46 51.06186 7.34855 34283 ft 452 kts 288°
2026-04-26 08:47 51.08181 7.25450 34290 ft 452 kts 288°
2026-04-26 08:47 51.10166 7.16054 34293 ft 452 kts 288°
2026-04-26 08:48 51.12151 7.06611 34286 ft 452 kts 288°
2026-04-26 08:48 51.14138 6.97114 34299 ft 452 kts 288°
2026-04-26 08:49 51.16095 6.87715 34309 ft 452 kts 288°
2026-04-26 08:49 51.18057 6.78249 34312 ft 451 kts 288°
2026-04-26 08:50 51.20006 6.68801 34315 ft 450 kts 288°
2026-04-26 08:50 51.21939 6.59380 34311 ft 449 kts 288°
2026-04-26 08:51 51.24833 6.45202 34317 ft 449 kts 288°
2026-04-26 08:52 51.26742 6.35790 34310 ft 448 kts 288°
2026-04-26 08:52 51.28656 6.26309 34310 ft 448 kts 287°
2026-04-26 08:53 51.30539 6.16941 34313 ft 448 kts 287°
2026-04-26 08:53 51.32434 6.07459 34309 ft 448 kts 287°
2026-04-26 08:54 51.34316 5.97999 34309 ft 448 kts 287°
2026-04-26 08:54 51.36186 5.88556 34308 ft 447 kts 287°
2026-04-26 08:55 51.38050 5.79097 34312 ft 447 kts 288°
2026-04-26 08:55 51.39903 5.69647 34309 ft 447 kts 287°
2026-04-26 08:56 51.41743 5.60217 34316 ft 446 kts 288°
2026-04-26 08:56 51.43572 5.50796 34322 ft 446 kts 287°
2026-04-26 08:57 51.45406 5.41305 34327 ft 446 kts 287°
2026-04-26 08:57 51.47223 5.31846 34333 ft 447 kts 287°
2026-04-26 08:58 51.49037 5.22365 34332 ft 447 kts 287°
2026-04-26 08:58 51.50849 5.12845 34332 ft 447 kts 287°
2026-04-26 08:59 51.52654 5.03310 34330 ft 447 kts 287°
2026-04-26 08:59 51.54442 4.93823 34334 ft 447 kts 287°
2026-04-26 09:00 51.56240 4.84295 34332 ft 446 kts 288°
2026-04-26 09:00 51.57951 4.74791 34332 ft 445 kts 286°
2026-04-26 09:01 51.59642 4.65219 34333 ft 444 kts 286°
2026-04-26 09:01 51.61326 4.55709 34332 ft 444 kts 287°
2026-04-26 09:02 51.63003 4.46205 34323 ft 443 kts 287°
2026-04-26 09:02 51.64675 4.36698 34315 ft 442 kts 287°
2026-04-26 09:03 51.66327 4.27246 34331 ft 441 kts 286°
2026-04-26 09:03 51.67978 4.17746 34336 ft 441 kts 286°
2026-04-26 09:04 51.69613 4.08291 34333 ft 440 kts 286°
2026-04-26 09:04 51.71243 3.98816 34333 ft 440 kts 286°
2026-04-26 09:05 51.72862 3.89352 34335 ft 439 kts 286°
2026-04-26 09:05 51.74472 3.79889 34330 ft 439 kts 287°
2026-04-26 09:06 51.76069 3.70454 34334 ft 438 kts 286°
2026-04-26 09:06 51.77658 3.61016 34334 ft 438 kts 286°
2026-04-26 09:07 51.79243 3.51545 34335 ft 437 kts 287°
2026-04-26 09:07 51.80806 3.42159 34330 ft 436 kts 287°
2026-04-26 09:08 51.82373 3.32694 34332 ft 436 kts 286°
2026-04-26 09:08 51.83926 3.23261 34335 ft 436 kts 286°
2026-04-26 09:09 51.84800 3.13688 34362 ft 436 kts 265°
2026-04-26 09:09 51.84093 3.03974 34359 ft 438 kts 266°
2026-04-26 09:10 51.83433 2.94192 34342 ft 439 kts 266°
2026-04-26 09:10 51.82777 2.84381 34321 ft 439 kts 266°
2026-04-26 09:11 51.82120 2.74617 34314 ft 439 kts 266°
2026-04-26 09:11 51.81460 2.64917 34315 ft 439 kts 266°
2026-04-26 09:12 51.80785 2.55140 34316 ft 438 kts 266°
2026-04-26 09:12 51.80103 2.45388 34313 ft 438 kts 266°
2026-04-26 09:13 51.79416 2.35684 34311 ft 437 kts 266°
2026-04-26 09:13 51.78720 2.25967 34309 ft 438 kts 266°
2026-04-26 09:14 51.78105 2.16264 34024 ft 426 kts 267°
2026-04-26 09:14 51.77831 2.11579 31761 ft 443 kts 267°
2026-04-26 09:14 51.77535 2.06563 31204 ft 447 kts 267°
2026-04-26 09:15 51.76945 1.96673 31365 ft 445 kts 267°
2026-04-26 09:15 51.76344 1.86742 31395 ft 447 kts 267°
2026-04-26 09:16 51.75731 1.76748 31374 ft 448 kts 267°
2026-04-26 09:16 51.75110 1.66785 31388 ft 448 kts 267°
2026-04-26 09:17 51.74556 1.56834 31353 ft 448 kts 266°
2026-04-26 09:17 51.73864 1.46863 31361 ft 448 kts 266°
2026-04-26 09:18 51.73208 1.36979 31358 ft 447 kts 267°
2026-04-26 09:18 51.72548 1.26995 31355 ft 447 kts 266°
2026-04-26 09:19 51.71889 1.17120 31351 ft 447 kts 266°
2026-04-26 09:19 51.71215 1.07141 31361 ft 448 kts 266°
2026-04-26 09:20 51.70540 0.97256 31351 ft 448 kts 266°
2026-04-26 09:20 51.69852 0.87316 31341 ft 447 kts 266°
2026-04-26 09:21 51.69155 0.77363 31329 ft 447 kts 266°
2026-04-26 09:21 51.68451 0.67444 31319 ft 446 kts 266°
2026-04-26 09:22 51.67742 0.57572 31307 ft 446 kts 266°
2026-04-26 09:22 51.67025 0.47700 31294 ft 446 kts 266°
2026-04-26 09:23 51.66303 0.37877 31288 ft 445 kts 265°
2026-04-26 09:23 51.65569 0.28017 31283 ft 446 kts 265°
2026-04-26 09:24 51.64827 0.18137 31279 ft 446 kts 265°
2026-04-26 09:24 51.64508 0.13271 31266 ft 426 kts 270°
2026-04-26 09:24 51.64831 0.08687 29932 ft 406 kts 290°
2026-04-26 09:24 51.66120 0.05000 28649 ft 372 kts 311°
2026-04-26 09:25 51.68140 0.02636 27222 ft 360 kts 336°
2026-04-26 09:25 51.70541 0.01964 25913 ft 353 kts 359°
2026-04-26 09:25 51.72930 0.02198 24573 ft 347 kts
2026-04-26 09:25 51.75295 0.02453 23285 ft 340 kts
2026-04-26 09:26 51.77622 0.02699 22009 ft 336 kts
2026-04-26 09:26 51.79921 0.02923 19946 ft 353 kts
2026-04-26 09:26 51.82299 0.03141 17977 ft 350 kts
2026-04-26 09:26 51.84641 0.03367 16224 ft 343 kts
2026-04-26 09:27 51.86906 0.03203 14220 ft 340 kts 342°
2026-04-26 09:27 51.88857 0.01376 11136 ft 358 kts 310°
2026-04-26 09:27 51.90033 -0.01923 9781 ft 336 kts 287°
2026-04-26 09:27 51.90442 -0.05523 8622 ft 346 kts 268°
2026-04-26 09:28 51.90497 -0.09341 8162 ft 331 kts 274°
2026-04-26 09:28 51.90512 -0.12972 7847 ft 317 kts 266°
2026-04-26 09:28 51.90210 -0.16471 7110 ft 320 kts 258°
2026-04-26 09:28 51.89545 -0.19851 7068 ft 298 kts 247°
2026-04-26 09:29 51.88639 -0.22628 7393 ft 266 kts 237°
2026-04-26 09:29 51.87555 -0.24813 7708 ft 233 kts 225°
2026-04-26 09:29 51.86418 -0.26447 7918 ft 206 kts 221°
2026-04-26 09:29 51.85388 -0.27868 8021 ft 185 kts 221°
2026-04-26 09:30 51.84408 -0.29217 8212 ft 198 kts 221°
2026-04-26 09:30 51.83285 -0.30761 8640 ft 224 kts 221°
2026-04-26 09:30 51.81982 -0.32558 8653 ft 257 kts 221°
2026-04-26 09:30 51.80616 -0.34452 8844 ft 269 kts 221°
2026-04-26 09:31 51.79149 -0.36495 8782 ft 286 kts 221°
2026-04-26 09:31 51.77632 -0.38616 8557 ft 291 kts 221°
2026-04-26 09:31 51.76117 -0.40738 8424 ft 288 kts 221°
2026-04-26 09:31 51.74615 -0.42834 8372 ft 282 kts 221°
2026-04-26 09:32 51.73148 -0.44856 8215 ft 282 kts 221°
2026-04-26 09:32 51.71665 -0.46907 8016 ft 282 kts 221°
2026-04-26 09:32 51.70171 -0.48975 7826 ft 280 kts 221°
2026-04-26 09:32 51.68679 -0.51056 7439 ft 286 kts 221°
2026-04-26 09:33 51.67191 -0.53131 7291 ft 282 kts 221°
2026-04-26 09:33 51.65744 -0.55155 7337 ft 273 kts 221°
2026-04-26 09:33 51.64314 -0.57117 7357 ft 266 kts 220°
2026-04-26 09:33 51.62890 -0.59046 6904 ft 278 kts 221°
2026-04-26 09:34 51.61394 -0.61147 6268 ft 290 kts 221°
2026-04-26 09:34 51.59895 -0.63242 6033 ft 286 kts 221°
2026-04-26 09:34 51.58394 -0.65351 5698 ft 287 kts 220°
2026-04-26 09:34 51.56934 -0.67518 5234 ft 292 kts 225°
2026-04-26 09:35 51.55666 -0.70052 4923 ft 285 kts 235°
2026-04-26 09:35 51.54714 -0.72779 4547 ft 282 kts 244°
2026-04-26 09:35 51.53952 -0.75546 4577 ft 258 kts 245°
2026-04-26 09:35 51.53236 -0.78169 4231 ft 256 kts 246°
2026-04-26 09:36 51.52520 -0.80683 4067 ft 247 kts 243°
2026-04-26 09:36 51.51291 -0.82492 2830 ft 264 kts 183°
2026-04-26 09:36 51.49599 -0.82343 3108 ft 235 kts 156°
2026-04-26 09:36 51.48365 -0.80784 2910 ft 234 kts 122°
2026-04-26 09:37 51.47703 -0.78691 3530 ft 185 kts 98°
2026-04-26 09:37 51.47688 -0.76755 3890 ft 169 kts 91°
2026-04-26 09:37 51.47679 -0.74756 3454 ft 181 kts 90°
2026-04-26 09:37 51.47683 -0.72894 3505 ft 164 kts 90°
2026-04-26 09:38 51.47683 -0.71012 3121 ft 169 kts 90°
2026-04-26 09:38 51.47687 -0.69111 2794 ft 172 kts 90°
2026-04-26 09:38 51.47694 -0.67219 2555 ft 171 kts 89°
2026-04-26 09:38 51.47702 -0.65335 2341 ft 165 kts 89°
2026-04-26 09:39 51.47719 -0.63520 2086 ft 164 kts 91°
2026-04-26 09:39 51.47716 -0.61698 1787 ft 165 kts 90°
2026-04-26 09:39 51.47721 -0.59878 1505 ft 161 kts 90°
2026-04-26 09:39 51.47727 -0.58065 1256 ft 163 kts 91°
2026-04-26 09:40 51.47731 -0.56254 1023 ft 161 kts 90°
2026-04-26 09:40 51.47739 -0.54582 849 ft 143 kts 89°
2026-04-26 09:40 51.47741 -0.53077 633 ft 131 kts 89°
2026-04-26 09:40 51.47741 -0.51624 441 ft 132 kts 89°
2026-04-26 09:41 51.47747 -0.50133 316 ft 134 kts 88°
2026-04-26 09:41 51.47755 -0.48676 120 ft 129 kts 91°
2026-04-26 09:41 51.47746 -0.47344 85 ft 103 kts 85°
2026-04-26 09:41 51.47757 -0.46386 83 ft 68 kts 89°
2026-04-26 09:42 51.47759 -0.45833 80 ft 35 kts 89°
2026-04-26 09:42 51.47731 -0.45498 83 ft 26 kts 134°
2026-04-26 09:42 51.47641 -0.45469 84 ft 7 kts 179°
2026-04-26 09:42 51.47631 -0.45469 84 ft 0 kts 178°
2026-04-26 09:43 51.47630 -0.45469 84 ft 0 kts 178°
2026-04-26 09:43 51.47619 -0.45469 84 ft 2 kts 178°
2026-04-26 09:43 51.47587 -0.45468 85 ft 6 kts 179°
2026-04-26 09:43 51.47532 -0.45455 86 ft 9 kts 156°
2026-04-26 09:44 51.47507 -0.45358 88 ft 11 kts 88°
2026-04-26 09:44 51.47510 -0.45212 89 ft 15 kts 88°
2026-04-26 09:44 51.47510 -0.45023 92 ft 18 kts 90°
2026-04-26 09:44 51.47509 -0.44800 91 ft 22 kts 90°
2026-04-26 09:45 51.47465 -0.44563 90 ft 17 kts 161°
2026-04-26 09:45 51.47352 -0.44561 92 ft 14 kts 179°
2026-04-26 09:45 51.47295 -0.44559 92 ft 1 kts 179°
2026-04-26 09:45 51.47289 -0.44559 92 ft 0 kts 179°
2026-04-26 09:46 51.47242 -0.44558 92 ft 12 kts 178°
2026-04-26 09:46 51.47156 -0.44556 94 ft 14 kts 179°
2026-04-26 09:46 51.47051 -0.44555 96 ft 13 kts 180°
2026-04-26 09:46 51.47000 -0.44570 96 ft 6 kts 232°
2026-04-26 09:47 51.46996 -0.44653 95 ft 8 kts 269°
2026-04-26 09:47 51.46996 -0.44666 95 ft 0 kts 269°